(289726) = 2000 EB53 = 2005 JV17

Discovered at Mount Lemmon on 2005-05-04 by Mt. Lemmon Survey.

Orbit

Orbit type: Main Belt

Note: WebGL enabled browser required.

epoch2023-02-25.0
epoch JD2460000.5
perihelion date2019-12-28.43303
perihelion JD2458845.93303
argument of perihelion (°)345.21776
ascending node (°)356.24487
inclination (°)0.25857
eccentricity0.0653813
perihelion distance (AU)2.5169125
Tisserand w.r.t. Jupiter3.4
ΔV w.r.t. Earth (km/sec)9.9
semimajor axis (AU)2.6929832
mean anomaly (°)257.49720
mean daily motion (°/day)0.22302490
aphelion distance (AU)2.869
period (years)4.42
P-vector [x]0.94811667
P-vector [y]-0.29122834
P-vector [z]-0.12751794
Q-vector [x]0.31792245
Q-vector [y]0.86813516
Q-vector [z]0.38113863
absolute magnitude17.07
phase slope0.15
uncertainty0
referenceMPO 745323
observations used253
oppositions17
arc length (days)8506
first opposition used2000
last opposition used2023
residual rms (arc-secs)0.81
perturbers coarse indicatorM-v
perturbers precise indicator003Ek
first observation date used2000-03-03.0
last observation date used2023-06-17.0
computer nameMPCLINUX
JD of orbit computation2456819.396510
perihelion JD uncertainty (days)2.0697E-04
argument of perihelion uncertainty (°)1.1526E-03
ascending node uncertainty (°)1.1517E-03
inclination uncertainty (°)5.6289E-06
eccentricity uncertainty 4.5718E-08
perihelion distance uncertainty (AU)1.2872E-07
Minimum Orbit Intersection Distances (in AU)
for orbit epoch: 2460000.5, reference: E2023-M35
Mercury2.11377
Venus1.79105
Earth1.50673
Mars1.13398
Jupiter2.37313
Saturn6.29447
Uranus15.5734
Neptune27.2694

Observations

260 total observations over interval: 2000 03 03.41535 – 2023 06 17.393414
These data are available for download (format description).

Date (UT) J2000 RA J2000 Dec Magn Location Ref
2000 03 03.41535 11 16 18.70 +04 46 47.7 20.5 V 691 – Steward Observatory, Kitt Peak-Spacewatch MPS 11433
2000 03 03.43676 11 16 17.63 +04 46 54.3 20.3 V 691 – Steward Observatory, Kitt Peak-Spacewatch MPS 11433
2000 03 03.45788 11 16 16.55 +04 47 01.2 20.9 V 691 – Steward Observatory, Kitt Peak-Spacewatch MPS 11433
2000 03 10.42567 11 10 21.60 +05 23 46.0 21.3 V 691 – Steward Observatory, Kitt Peak-Spacewatch MPS 11433
2000 03 10.43148 11 10 21.27 +05 23 48.7 20.7 V 691 – Steward Observatory, Kitt Peak-Spacewatch MPS 11433
2000 03 10.43702 11 10 21.01 +05 23 50.2 20.5 V 691 – Steward Observatory, Kitt Peak-Spacewatch MPS 11433
2002 10 10.23277 01 47 32.14 +11 18 08.0 21.2   644 – Palomar Mountain/NEAT MPS 178518
2002 10 10.30697 01 47 28.32 +11 17 48.1 20.8   644 – Palomar Mountain/NEAT MPS 178518
2002 10 10.37839 01 47 24.61 +11 17 28.7 21.1   644 – Palomar Mountain/NEAT MPS 178518
2004 01 30.21306 08 49 03.27 +18 06 13.4 21.8 V 691 – Steward Observatory, Kitt Peak-Spacewatch MPS 139669
2004 01 30.24058 08 49 01.70 +18 06 19.7 21.2 V 691 – Steward Observatory, Kitt Peak-Spacewatch MPS 139669
2004 01 30.26869 08 49 00.03 +18 06 26.0 21.1 V 691 – Steward Observatory, Kitt Peak-Spacewatch MPS 139669
2005 04 11.36223 14 49 25.05 -16 32 58.4 20.9 R G96 – Mt. Lemmon Survey MPS 139669
2005 04 11.36910 14 49 24.68 -16 32 57.5 19.4 R G96 – Mt. Lemmon Survey MPS 139669
2005 04 11.37591 14 49 24.30 -16 32 55.4 19.2 R G96 – Mt. Lemmon Survey MPS 139669
2005 04 11.38270 14 49 24.16 -16 32 55.1 20.0 R G96 – Mt. Lemmon Survey MPS 139669
2005 05 04.30117 14 30 26.11 -15 07 33.5 19.7 R G96 – Mt. Lemmon Survey MPS 134073
2005 05 04.30913 14 30 25.68 -15 07 31.7 20.0 R G96 – Mt. Lemmon Survey MPS 134073
2005 05 04.31712 14 30 25.23 -15 07 29.8 19.7 R G96 – Mt. Lemmon Survey MPS 134073
2005 05 04.32512 14 30 24.79 -15 07 27.9 19.1 R G96 – Mt. Lemmon Survey MPS 134073
2005 05 07.27698 14 27 49.80 -14 55 08.3 19.8 R G96 – Mt. Lemmon Survey MPS 134073
2005 05 07.28361 14 27 49.45 -14 55 06.5 19.8 R G96 – Mt. Lemmon Survey MPS 134073
2005 05 07.29042 14 27 49.07 -14 55 05.2 20.0 R G96 – Mt. Lemmon Survey MPS 134073
2005 05 07.29704 14 27 48.72 -14 55 03.3 20.1 R G96 – Mt. Lemmon Survey MPS 134073
2005 06 01.22873 14 10 12.73 -13 27 00.5 22.4 R G96 – Mt. Lemmon Survey MPS 139669
2005 06 01.23601 14 10 12.49 -13 26 59.3 21.0 R G96 – Mt. Lemmon Survey MPS 139669
2005 06 01.24333 14 10 12.32 -13 26 58.4 20.9 R G96 – Mt. Lemmon Survey MPS 139669
2005 06 01.25066 14 10 12.05 -13 26 57.3 20.9 R G96 – Mt. Lemmon Survey MPS 139669
2006 08 28.22581 22 24 02.41 -10 10 58.2 20.7 V 691 – Steward Observatory, Kitt Peak-Spacewatch MPS 177067
2006 08 28.24318 22 24 01.54 -10 11 03.2 20.7 V 691 – Steward Observatory, Kitt Peak-Spacewatch MPS 177067
2006 08 28.26049 22 24 00.64 -10 11 08.2 20.9 V 691 – Steward Observatory, Kitt Peak-Spacewatch MPS 177067
2006 08 28.26890 22 24 00.21 -10 11 10.3 19.7 V 703 – Catalina Sky Survey MPS 177067
2006 08 28.27530 22 23 59.82 -10 11 13.3 19.2 V 703 – Catalina Sky Survey MPS 177067
2006 08 28.28171 22 23 59.53 -10 11 13.8 20.0 V 703 – Catalina Sky Survey MPS 177067
2006 08 28.28812 22 23 59.13 -10 11 17.1 19.4 V 703 – Catalina Sky Survey MPS 177067
2007 12 18.25727 06 03 19.13 +23 50 58.3 20.6 V 691 – Steward Observatory, Kitt Peak-Spacewatch MPS 231802
2007 12 18.27493 06 03 18.04 +23 50 58.8 20.5 V 691 – Steward Observatory, Kitt Peak-Spacewatch MPS 231802
2007 12 18.29259 06 03 16.94 +23 50 58.6 20.3 V 691 – Steward Observatory, Kitt Peak-Spacewatch MPS 231802
2009 03 19.22113 12 08 45.32 -00 58 44.4 21.1 V 691 – Steward Observatory, Kitt Peak-Spacewatch MPS 280082
2009 03 19.23638 12 08 44.53 -00 58 38.6 20.4 V 691 – Steward Observatory, Kitt Peak-Spacewatch MPS 280082
2009 03 19.25161 12 08 43.77 -00 58 34.8 20.9 V 691 – Steward Observatory, Kitt Peak-Spacewatch MPS 280082
2009 04 03.26133 11 56 22.45 +00 20 24.5 20.9 V G96 – Mt. Lemmon Survey MPS 282554
2009 04 03.26983 11 56 21.98 +00 20 26.4 20.3 V G96 – Mt. Lemmon Survey MPS 282554
2009 04 03.27843 11 56 21.58 +00 20 29.7 20.8 V G96 – Mt. Lemmon Survey MPS 282554
2009 04 03.28696 11 56 21.19 +00 20 31.6 20.7 V G96 – Mt. Lemmon Survey MPS 282554
2011 10 18.28591 03 08 37.56 +17 55 32.1 21.0 V 691 – Steward Observatory, Kitt Peak-Spacewatch MPS 396159
2011 10 18.30368 03 08 36.80 +17 55 29.5 21.0 V 691 – Steward Observatory, Kitt Peak-Spacewatch MPS 396159
2011 10 18.32146 03 08 36.01 +17 55 26.4 21.1 V 691 – Steward Observatory, Kitt Peak-Spacewatch MPS 396159
2011 10 22.25390 03 05 37.88 +17 43 56.5 20.6 V 691 – Steward Observatory, Kitt Peak-Spacewatch MPS 398048
2011 10 22.27167 03 05 37.00 +17 43 52.3 20.9 V 691 – Steward Observatory, Kitt Peak-Spacewatch MPS 398048
2011 10 22.28944 03 05 36.13 +17 43 49.7 21.3 V 691 – Steward Observatory, Kitt Peak-Spacewatch MPS 398048
2011 10 26.13685 03 02 25.85 +17 31 16.3 20.1   J43 – Oukaimeden Observatory, Marrakech MPS 398048
2011 10 26.16112 03 02 24.49 +17 31 11.2 20.0   J43 – Oukaimeden Observatory, Marrakech MPS 398048
2011 10 26.18534 03 02 23.33 +17 31 06.3 20.0   J43 – Oukaimeden Observatory, Marrakech MPS 398048
2011 11 15.29821 02 44 07.04 +16 13 23.4 19.9 V G96 – Mt. Lemmon Survey MPS 400997
2011 11 15.30515 02 44 06.61 +16 13 21.9 20.2 V G96 – Mt. Lemmon Survey MPS 400997
2011 11 15.31209 02 44 06.25 +16 13 19.7 20.2 V G96 – Mt. Lemmon Survey MPS 400997
2011 11 15.31906 02 44 05.85 +16 13 18.7 20.7 V G96 – Mt. Lemmon Survey MPS 400997
2011 11 23.25860 02 37 27.62 +15 42 58.2 20.3 V G96 – Mt. Lemmon Survey MPS 402239
2011 11 23.26382 02 37 27.33 +15 42 56.9 20.1 V G96 – Mt. Lemmon Survey MPS 402239
2011 11 23.26909 02 37 27.08 +15 42 55.6 20.2 V G96 – Mt. Lemmon Survey MPS 402239
2011 11 23.27431 02 37 26.83 +15 42 54.5 20.7 V G96 – Mt. Lemmon Survey MPS 402239
2011 11 23.27947 02 37 26.58 +15 42 53.4 20.4 V G96 – Mt. Lemmon Survey MPS 402239
2011 11 24.27636 02 36 40.971 +15 39 20.33 21.0 g F51 – Pan-STARRS 1, Haleakala MPS 402239
2011 11 24.28798 02 36 40.423 +15 39 18.00 21.0 g F51 – Pan-STARRS 1, Haleakala MPS 402239
2011 11 24.30097 02 36 39.815 +15 39 15.10 20.6 r F51 – Pan-STARRS 1, Haleakala MPS 402239
2011 11 24.31216 02 36 39.277 +15 39 12.85 20.7 r F51 – Pan-STARRS 1, Haleakala MPS 402239
2013 02 14.29402 09 44 48.48 +13 47 05.9 20.1 V G96 – Mt. Lemmon Survey MPS 456092
2013 02 14.30090 09 44 48.15 +13 47 07.0 20.1 V G96 – Mt. Lemmon Survey MPS 456092
2013 02 14.30773 09 44 47.68 +13 47 08.9 20.3 V G96 – Mt. Lemmon Survey MPS 456092
2013 02 14.31464 09 44 47.36 +13 47 11.1 20.4 V G96 – Mt. Lemmon Survey MPS 456092
2013 03 07.25370 09 27 37.08 +15 09 59.1 22.1 V G96 – Mt. Lemmon Survey MPS 459107
2013 03 07.25427 09 27 37.00 +15 09 58.5 20.5 V G96 – Mt. Lemmon Survey MPS 459107
2013 03 07.25897 09 27 36.75 +15 10 00.0 22.4 V G96 – Mt. Lemmon Survey MPS 459107
2013 03 07.25953 09 27 36.82 +15 09 59.8 21.3 V G96 – Mt. Lemmon Survey MPS 459107
2013 03 07.26426 09 27 36.61 +15 10 00.8 21.5 V G96 – Mt. Lemmon Survey MPS 459107
2013 03 07.26484 09 27 36.57 +15 10 01.4 20.8 V G96 – Mt. Lemmon Survey MPS 459107
2013 03 07.26952 09 27 36.39 +15 10 02.3 22.4 V G96 – Mt. Lemmon Survey MPS 459107
2013 03 07.27008 09 27 36.36 +15 10 01.3 21.5 V G96 – Mt. Lemmon Survey MPS 459107
2013 03 11.13339 09 25 08.99 +15 21 16.4 21.4 V 691 – Steward Observatory, Kitt Peak-Spacewatch MPS 460426
2013 03 11.15500 09 25 08.21 +15 21 19.8 21.6 V 691 – Steward Observatory, Kitt Peak-Spacewatch MPS 460426
2013 03 11.17664 09 25 07.37 +15 21 23.0 21.3 V 691 – Steward Observatory, Kitt Peak-Spacewatch MPS 460426
2013 03 13.16148 09 23 59.05 +15 26 32.6 21.8 V 691 – Steward Observatory, Kitt Peak-Spacewatch MPS 460426
2013 03 13.17217 09 23 58.69 +15 26 33.5 21.5 V 691 – Steward Observatory, Kitt Peak-Spacewatch MPS 460426
2013 03 13.18287 09 23 58.33 +15 26 35.3 21.3 V 691 – Steward Observatory, Kitt Peak-Spacewatch MPS 460426
2014 04 30.45760 15 51 36.179 -20 30 40.38 20.8 w F51 – Pan-STARRS 1, Haleakala MPS 513639
2014 04 30.48135 15 51 35.056 -20 30 37.11 21.3 w F51 – Pan-STARRS 1, Haleakala MPS 513639
2014 04 30.49323 15 51 34.486 -20 30 35.81 21.4 w F51 – Pan-STARRS 1, Haleakala MPS 513639
